| time (UTC) | temp F | wind direction | speed knots | gust knots | rain 1hr in | rain 24hr in | rain mn in | humidity % | barometer mb |
| 20260505184940 | 62 | 225 | 3.5 | 3.5 | 0.00 | 0.00 | 0.00 | 100 | 1021.8 |
| 20260505183939 | 62 | 225 | 1.7 | 3.5 | 0.00 | 0.00 | 0.00 | 100 | 1021.8 |
| 20260505182938 | 62 | 225 | 2.6 | 3.5 | 0.00 | 0.00 | 0.00 | 100 | 1021.9 |
| 20260505181936 | 62 | 225 | 2.6 | 4.3 | 0.00 | 0.00 | 0.00 | 100 | 1021.9 |
| 20260505175933 | 62 | 234 | 0.9 | 3.5 | 0.00 | 0.00 | 0.00 | 100 | 1021.8 |
| 20260505174932 | 62 | 220 | 2.6 | 3.5 | 0.00 | 0.00 | 0.00 | 100 | 1021.9 |
| 20260505173931 | 62 | 231 | 0.9 | 1.7 | 0.00 | 0.00 | 0.00 | 100 | 1021.9 |
| 20260505171928 | 62 | 222 | 1.7 | 2.6 | 0.00 | 0.00 | 0.00 | 100 | 1022.0 |
| 20260505170927 | 62 | 209 | 0.9 | 4.3 | 0.00 | 0.00 | 0.00 | 100 | 1022.0 |
| 20260505165925 | 62 | 225 | 2.6 | 4.3 | 0.00 | 0.00 | 0.00 | 100 | 1022.2 |
| 20260505164924 | 62 | 234 | 2.6 | 5.2 | 0.00 | 0.00 | 0.00 | 100 | 1022.0 |
| 20260505163923 | 62 | 234 | 1.7 | 4.3 | 0.00 | 0.00 | 0.00 | 100 | 1022.1 |
| 20260505161920 | 62 | 230 | 2.6 | 6.1 | 0.00 | 0.00 | 0.00 | 100 | 1022.3 |
| 20260505160919 | 62 | 231 | 3.5 | 6.1 | 0.00 | 0.00 | 0.00 | 100 | 1022.3 |
| 20260505151912 | 62 | 236 | 2.6 | 4.3 | 0.00 | 0.00 | 0.00 | 100 | 1022.4 |
| 20260505150910 | 62 | 229 | 5.2 | 6.1 | 0.00 | 0.00 | 0.00 | 100 | 1022.5 |
| 20260505124851 | 62 | 220 | 2.6 | 5.2 | 0.00 | 0.00 | 0.00 | 100 | 1022.4 |
| 20260505123850 | 62 | 225 | 6.1 | 6.1 | 0.00 | 0.00 | 0.00 | 100 | 1022.4 |
| 20260505122849 | 62 | 194 | 1.7 | 6.1 | 0.00 | 0.00 | 0.00 | 100 | 1022.3 |
| 20260505121847 | 63 | 229 | 3.5 | 6.1 | 0.00 | 0.00 | 0.00 | 100 | 1022.3 |
| 20260505120846 | 63 | 230 | 2.6 | 7.0 | 0.00 | 0.00 | 0.00 | 100 | 1022.4 |
| 20260505115844 | 63 | 118 | 3.5 | 7.0 | 0.00 | 0.00 | 0.00 | 100 | 1022.2 |
| 20260505114843 | 63 | 216 | 3.5 | 5.2 | 0.00 | 0.00 | 0.00 | 100 | 1022.0 |
| 20260505113842 | 63 | 218 | 3.5 | 7.8 | 0.00 | 0.00 | 0.00 | 100 | 1022.3 |
| 20260505112840 | 63 | 212 | 2.6 | 5.2 | 0.00 | 0.00 | 0.00 | 100 | 1022.2 |
| 20260505111839 | 63 | 225 | 4.3 | 11.3 | 0.00 | 0.00 | 0.00 | 100 | 1022.3 |
| 20260505110838 | 63 | 229 | 6.1 | 8.7 | 0.00 | 0.00 | 0.00 | 100 | 1022.1 |
| 20260505101831 | 65 | 211 | 6.1 | 11.3 | 0.00 | 0.00 | 0.00 | 100 | 1021.4 |
| 20260505100829 | 65 | 227 | 4.3 | 9.6 | 0.00 | 0.00 | 0.00 | 100 | 1021.3 |
| 20260505095828 | 65 | 231 | 6.1 | 11.3 | 0.00 | 0.00 | 0.00 | 100 | 1021.1 |
| 20260505094827 | 66 | 222 | 2.6 | 7.0 | 0.00 | 0.00 | 0.00 | 100 | 1021.0 |
| 20260505093827 | 66 | 225 | 11.3 | 11.3 | 0.00 | 0.00 | 0.00 | 100 | 1021.0 |
| 20260505092824 | 66 | 231 | 4.3 | 13.0 | 0.00 | 0.00 | 0.00 | 100 | 1020.8 |
| 20260505090821 | 67 | 229 | 13.0 | 13.0 | 0.00 | 0.00 | 0.00 | 100 | 1020.7 |
| 20260505085820 | 68 | 218 | 7.0 | 10.4 | 0.00 | 0.00 | 0.00 | 100 | 1020.3 |
| 20260505084818 | 68 | 192 | 4.3 | 11.3 | 0.00 | 0.00 | 0.00 | 100 | 1020.1 |
| 20260505083817 | 69 | 240 | 5.2 | 8.7 | 0.00 | 0.00 | 0.00 | 100 | 1020.2 |
| 20260505082816 | 69 | 225 | 8.7 | 13.9 | 0.00 | 0.00 | 0.00 | 100 | 1020.1 |
| 20260505081814 | 69 | 225 | 10.4 | 13.9 | 0.00 | 0.00 | 0.00 | 100 | 1020.2 |
| 20260505080813 | 70 | 231 | 8.7 | 9.6 | 0.00 | 0.00 | 0.00 | 100 | 1020.0 |
| 20260505075812 | 70 | 238 | 9.6 | 13.0 | 0.00 | 0.00 | 0.00 | 100 | 1019.9 |
| 20260505074810 | 71 | 229 | 7.0 | 12.2 | 0.00 | 0.00 | 0.00 | 100 | 1019.7 |
| 20260505065805 | 72 | 238 | 7.0 | 9.6 | 0.00 | 0.00 | 0.00 | 100 | 1019.2 |
| 20260505055755 | 74 | 229 | 3.5 | 13.0 | 0.00 | 0.00 | 0.00 | 100 | 1018.6 |
| 20260505051750 | 76 | 198 | 3.5 | 6.1 | 0.00 | 0.00 | 0.00 | 100 | 1018.6 |
| 20260505050749 | 77 | 225 | 6.1 | 6.1 | 0.00 | 0.00 | 0.00 | 100 | 1018.9 |
| 20260505041742 | 82 | 72 | 0.9 | 4.3 | 0.00 | 0.00 | 0.00 | 100 | 1019.3 |
| 20260505035739 | 79 | 90 | 1.7 | 1.7 | 0.00 | 0.00 | 0.00 | 100 | 1019.4 |
| 20260505034738 | 79 | 45 | 0.9 | 2.6 | 0.00 | 0.00 | 0.00 | 100 | 1019.5 |
| 20260505033736 | 79 | 81 | 1.7 | 3.5 | 0.00 | 0.00 | 0.00 | 100 | 1019.4 |
| 20260505032735 | 79 | 45 | 0.0 | 0.0 | 0.00 | 0.00 | 0.00 | 100 | 1019.4 |
| 20260505031734 | 79 | 306 | 0.0 | 2.6 | 0.00 | 0.00 | 0.00 | 100 | 1019.4 |
| 20260505025731 | 80 | 83 | 0.0 | 2.6 | 0.00 | 0.00 | 0.00 | 100 | 1019.4 |
| 20260505024730 | 81 | 225 | 0.9 | 3.5 | 0.00 | 0.00 | 0.00 | 100 | 1019.6 |
| 20260505023728 | 81 | 90 | 0.0 | 1.7 | 0.00 | 0.00 | 0.00 | 100 | 1019.5 |
| 20260505022727 | 82 | 112 | 0.0 | 2.6 | 0.00 | 0.00 | 0.00 | 100 | 1019.6 |
| 20260505021726 | 82 | 90 | 0.0 | 3.5 | 0.00 | 0.00 | 0.00 | 100 | 1019.6 |
| 20260505020724 | 82 | 90 | 0.0 | 1.7 | 0.00 | 0.00 | 0.00 | 100 | 1019.6 |
| 20260505015723 | 83 | 90 | 0.0 | 0.9 | 0.00 | 0.00 | 0.00 | 100 | 1019.7 |
| 20260505014722 | 83 | 90 | 0.0 | 0.9 | 0.00 | 0.00 | 0.00 | 100 | 1019.6 |
| 20260505013720 | 83 | 90 | 0.9 | 1.7 | 0.00 | 0.00 | 0.00 | 100 | 1019.5 |
| 20260505012720 | 84 | 90 | 0.9 | 0.9 | 0.00 | 0.00 | 0.00 | 100 | 1019.4 |
| 20260505010716 | 85 | 74 | 0.0 | 2.6 | 0.00 | 0.00 | 0.00 | 100 | 1019.4 |
| 20260505005715 | 85 | 65 | 0.0 | 2.6 | 0.00 | 0.00 | 0.00 | 100 | 1019.6 |
| 20260505004713 | 85 | 191 | 0.0 | 1.7 | 0.00 | 0.00 | 0.00 | 100 | 1019.4 |
| 20260505003712 | 85 | 58 | 0.9 | 2.6 | 0.00 | 0.00 | 0.00 | 100 | 1019.3 |
| 20260505002711 | 84 | 90 | 0.0 | 1.7 | 0.00 | 0.00 | 0.00 | 100 | 1019.2 |
| 20260505000708 | 84 | 62 | 0.0 | 1.7 | 0.00 | 0.00 | 0.00 | 100 | 1019.2 |
| 20260504235707 | 84 | 45 | 0.0 | 2.6 | 0.00 | 0.00 | 0.00 | 100 | 1019.0 |
| 20260504233704 | 83 | 63 | 0.9 | 1.7 | 0.00 | 0.00 | 0.00 | 100 | 1019.1 |
| 20260504232702 | 82 | 52 | 0.9 | 1.7 | 0.00 | 0.00 | 0.00 | 100 | 1019.0 |
| 20260504231701 | 81 | 94 | 0.0 | 1.7 | 0.00 | 0.00 | 0.00 | 100 | 1019.0 |
| 20260504230700 | 80 | 135 | 0.9 | 2.6 | 0.00 | 0.00 | 0.00 | 100 | 1019.1 |
| 20260504225658 | 79 | 119 | 0.0 | 2.6 | 0.00 | 0.00 | 0.00 | 100 | 1019.0 |
| 20260504223652 | 77 | 140 | 0.0 | 2.6 | 0.00 | 0.00 | 0.00 | 100 | 1018.5 |
| 20260504222651 | 76 | 58 | 0.9 | 1.7 | 0.00 | 0.00 | 0.00 | 100 | 1018.4 |
| 20260504221648 | 75 | 51 | 0.9 | 3.5 | 0.00 | 0.00 | 0.00 | 100 | 1018.3 |
| 20260504220648 | 74 | 47 | 0.9 | 2.6 | 0.00 | 0.00 | 0.00 | 100 | 1018.3 |
| 20260504212641 | 68 | 116 | 0.0 | 0.9 | 0.00 | 0.00 | 0.00 | 100 | 1018.0 |
| 20260504211641 | 66 | 171 | 0.0 | 0.9 | 0.00 | 0.00 | 0.00 | 100 | 1017.8 |
| 20260504210640 | 64 | 90 | 0.9 | 0.9 | 0.00 | 0.00 | 0.00 | 100 | 1017.6 |
| 20260504205637 | 62 | 225 | 0.0 | 0.9 | 0.00 | 0.00 | 0.00 | 100 | 1017.2 |
| 20260504204636 | 60 | 175 | 0.0 | 1.7 | 0.00 | 0.00 | 0.00 | 100 | 1017.0 |
| 20260504203634 | 59 | 74 | 0.9 | 3.5 | 0.00 | 0.00 | 0.00 | 100 | 1017.0 |
| 20260504202634 | 58 | 90 | 0.0 | 1.7 | 0.00 | 0.00 | 0.00 | 100 | 1016.7 |
| 20260504201632 | 57 | 90 | 0.0 | 1.7 | 0.00 | 0.00 | 0.00 | 100 | 1016.3 |
| 20260504200630 | 57 | 90 | 0.0 | 2.6 | 0.00 | 0.00 | 0.00 | 100 | 1016.0 |
| 20260504195630 | 57 | 90 | 0.0 | 2.6 | 0.00 | 0.00 | 0.00 | 100 | 1015.7 |
| 20260504194628 | 57 | 83 | 0.9 | 2.6 | 0.00 | 0.00 | 0.00 | 100 | 1015.4 |
| 20260504193626 | 57 | 49 | 0.0 | 1.7 | 0.00 | 0.00 | 0.00 | 100 | 1015.1 |
| 20260504192626 | 57 | 67 | 0.0 | 4.3 | 0.00 | 0.00 | 0.00 | 100 | 1014.8 |
| 20260504191625 | 57 | 125 | 0.9 | 1.7 | 0.00 | 0.00 | 0.00 | 100 | 1014.6 |
| 20260504190622 | 57 | 81 | 1.7 | 3.5 | 0.00 | 0.00 | 0.00 | 100 | 1014.7 |